Theta_e
297 298 297 297 297 298 297 296 292 295 294 293 291 291 291 294 295 295 294 294 294 292 294 294 291 293 292 294 294 294 295 296 298 304 304 306 308 307 309 310 310 308 307 308
297 297 297 296 296 297 296 295 294 295 294 293 293 291 292 294 295 295 295 295 294 293 294 294 292 292 294 293 293 293 294 297 296 307 310 309 309 308 308 307 306 309 310 309
298 297 297 296 296 297 296 295 292 295 294 293 290 291 292 294 294 295 295 294 292 292 293 292 293 292 293 293 293 295 295 296 297 301 302 301 303 303 307 308 309 309 309 308
297 297 297 296 296 296 296 296 291 294 291 294 291 291 291 293 293 294 294 292 292 295 294 294 292 293 293 293 293 294 292 294 294 295 295 296 299 302 302 306 310 309 308 307
296 296 297 296 296 296 296 296 296 295 294 291 291 290 290 292 292 292 292 292 294 293 294 293 294 293 293 294 291 287 292 293 294 295 297 297 296 296 302 305 306 310 307 303
294 295 297 297 296 295 296 296 295 295 293 290 291 291 292 293 292 292 293 293 293 293 293 293 292 292 292 293 294 294 292 294 295 298 300 301 296 292 292 290 288 294 293 292
294 295 297 297 296 295 295 295 295 295 291 291 293 292 292 292 292 293 293 293 291 293 294 293 293 293 294 296 296 295 295 294 295 296 300 299 295 289 290 289 286 285 285 286
294 294 296 297 296 295 295 295 295 295 292 292 293 292 292 292 292 290 292 292 293 294 292 293 292 295 295 295 295 294 295 296 296 301 299 297 292 287 286 288 287 283 283 283
294 294 295 296 297 296 295 295 295 295 294 289 292 292 293 290 291 290 292 293 294 293 292 290 287 291 292 293 293 293 292 292 296 298 298 295 289 284 285 290 293 282 281 282
293 292 293 292 296 295 295 295 295 296 295 294 294 294 293 293 292 292 291 293 293 294 290 290 289 290 291 292 290 288 289 285 291 293 295 289 282 285 285 288 286 280 280 280
291 291 292 292 294 293 295 294 295 295 295 295 294 294 294 293 292 292 292 292 292 292 290 290 292 290 285 287 286 283 284 284 287 288 292 291 281 282 281 280 279 278 278 279
290 290 289 292 292 293 294 294 295 294 294 294 294 293 292 293 293 292 293 293 293 295 295 287 286 290 280 284 286 282 282 280 281 285 286 282 280 279 278 277 277 277 277 278
291 289 289 290 292 292 292 294 294 294 294 292 292 292 293 293 294 293 293 293 293 294 294 294 291 288 290 288 282 281 279 278 282 281 281 279 281 279 277 276 276 276 276 277
290 289 289 289 292 292 293 294 293 293 292 291 292 292 293 292 292 291 291 291 291 292 293 293 290 292 284 282 280 279 278 278 278 280 279 277 281 279 276 275 275 275 276 277
290 289 289 288 290 292 294 293 293 292 292 291 292 292 292 292 291 289 291 292 291 292 292 292 287 286 283 280 279 277 277 276 277 277 277 277 276 276 275 274 274 275 275 277
290 289 289 289 289 292 293 293 292 292 293 293 290 292 292 291 290 288 289 292 291 292 286 285 283 282 285 280 279 277 276 276 276 276 275 275 275 275 275 274 275 275 276 278
289 289 288 290 291 295 294 293 293 292 292 292 289 284 290 289 288 288 289 291 288 287 284 283 282 280 280 275 276 277 276 275 275 275 274 274 274 274 275 275 275 276 277 278
289 288 289 291 294 293 292 292 292 292 292 291 286 283 287 287 286 286 287 288 287 284 283 281 280 278 277 272 275 275 275 275 276 275 275 274 274 274 275 275 275 276 276 277
289 289 290 292 292 290 291 291 292 291 291 290 282 276 281 285 284 284 285 287 280 282 273 277 277 273 274 274 275 275 275 274 274 276 276 275 274 274 275 275 275 275 275 276
288 290 289 291 290 291 292 291 292 290 288 285 275 277 277 281 281 279 280 283 276 277 277 277 271 273 276 275 275 275 275 275 275 274 275 275 275 274 275 275 274 275 275 276
288 290 290 289 290 289 290 289 283 281 277 280 278 278 276 279 275 273 280 274 274 278 277 277 272 275 275 275 275 275 275 275 275 275 275 275 274 274 275 275 275 275 275 276
289 289 289 289 289 288 281 273 276 276 278 278 277 278 277 278 279 276 277 277 277 279 275 277 274 276 275 274 275 275 275 275 275 275 275 275 275 275 275 275 276 276 276 276
289 289 289 287 286 284 280 279 280 279 277 276 276 273 276 278 277 276 274 280 277 276 275 275 273 274 274 274 274 275 275 275 275 275 275 275 275 275 275 276 276 276 276 276
290 289 285 281 279 278 277 277 277 280 279 277 275 275 273 274 274 271 277 277 277 278 276 275 274 273 274 274 274 274 275 275 275 275 275 275 275 275 275 275 275 276 276 276
289 288 287 281 281 281 281 281 280 278 276 275 274 272 273 269 273 273 276 277 275 275 275 274 273 273 273 273 274 274 274 274 274 274 274 275 275 275 275 275 275 275 276 276
288 286 281 280 280 279 280 279 277 275 274 274 273 269 270 271 270 272 271 274 273 273 271 272 272 272 273 273 273 273 273 274 274 274 274 274 274 274 274 275 275 275 275 275
286 282 282 282 281 279 278 276 275 275 275 268 267 271 272 269 270 273 273 271 270 271 271 271 271 271 272 272 272 273 273 273 273 274 274 274 273 274 274 274 274 274 274 274
Wind_Speed
33 35 38 39 39 41 43 15 4 23 25 9 3 3 8 9 6 6 5 4 4 4 11 5 3 4 4 16 9 14 3 4 4 4 7 4 12 11 17 10 7 5 3 5
35 37 37 37 36 37 38 20 7 16 17 6 7 5 5 4 9 9 4 4 2 4 5 6 6 3 10 21 8 4 5 2 5 1 4 2 5 6 15 6 3 12 7 4
34 35 35 36 34 36 30 11 5 8 6 9 2 5 5 13 14 5 4 6 3 6 13 5 10 13 8 20 15 16 6 3 5 5 5 5 7 13 5 15 13 16 13 4
31 33 36 35 32 33 27 7 3 5 5 6 5 4 4 11 11 5 6 4 2 15 11 11 4 20 17 13 6 3 2 3 4 15 15 13 11 12 15 9 15 14 14 4
32 33 35 36 33 32 17 8 10 7 9 9 4 4 4 10 10 4 6 4 20 17 8 10 20 22 20 4 6 4 4 3 4 6 10 9 15 27 13 10 11 13 0 6
33 34 35 34 34 30 18 20 22 8 7 4 3 2 5 13 15 9 12 11 15 16 12 23 35 23 16 7 4 2 1 2 3 5 1 8 12 16 18 12 20 10 10 12
34 34 33 32 31 26 22 23 20 6 5 1 6 7 6 13 13 11 18 20 3 16 41 26 7 6 6 5 3 1 3 3 2 5 5 6 3 18 7 14 16 19 15 18
35 34 32 32 30 28 24 19 17 5 4 6 10 6 10 14 17 8 9 11 25 23 16 6 6 2 3 4 3 12 6 2 3 3 4 5 12 15 7 6 5 19 18 21
35 33 32 31 29 28 27 17 12 12 5 4 7 4 9 4 6 5 6 23 19 15 3 3 4 4 4 5 11 8 12 7 3 4 4 4 4 21 22 7 4 22 24 22
34 34 31 31 29 28 25 19 11 13 10 11 6 9 5 6 8 7 9 20 9 12 4 3 3 3 3 5 7 9 7 5 8 8 3 3 13 21 21 7 8 32 30 28
35 34 31 33 30 29 23 20 12 13 14 25 15 8 13 16 11 4 12 10 4 3 6 3 2 2 2 2 3 4 4 6 5 6 5 4 26 8 7 6 21 24 28 28
36 33 33 32 31 30 23 17 17 15 14 19 30 25 11 8 10 14 5 5 4 4 2 1 0 2 2 0 1 4 3 1 3 5 2 4 12 14 13 17 22 26 32 36
37 36 34 35 32 29 21 17 14 13 11 18 5 1 3 7 3 4 6 5 7 7 8 3 0 2 1 2 2 1 7 11 2 6 7 20 1 14 31 32 30 31 33 36
38 36 38 39 34 28 18 12 10 6 6 4 6 4 16 5 5 11 18 23 20 16 8 4 2 1 8 2 3 3 4 9 8 5 9 22 5 36 32 32 30 32 32 32
39 38 41 43 35 21 9 7 3 1 6 4 11 13 2 3 13 16 7 10 6 6 2 1 3 3 3 2 3 3 3 1 3 3 14 7 23 31 34 31 32 31 33 31
39 40 43 39 23 5 2 1 3 5 8 5 4 5 3 8 13 19 7 10 3 2 5 3 4 5 4 2 2 6 9 9 6 5 18 20 19 26 27 28 30 29 26 22
39 42 41 25 9 2 2 1 1 7 9 3 5 8 3 13 13 11 7 8 5 4 4 4 3 7 5 2 2 12 18 17 13 8 16 6 17 20 26 27 26 25 23 21
39 40 30 10 2 1 1 3 6 7 4 2 1 4 6 16 8 7 9 6 3 7 4 4 3 4 5 3 7 18 21 23 4 26 23 16 19 23 24 23 25 27 27 25
39 32 16 4 2 3 3 7 1 2 0 1 3 2 3 14 7 5 4 5 2 3 2 2 3 2 4 4 16 21 22 19 24 28 24 25 24 25 26 25 25 26 26 24
32 14 5 2 5 9 1 3 2 1 2 3 3 2 2 10 7 4 7 3 0 2 2 3 3 2 7 12 15 15 17 18 21 26 33 36 35 32 29 26 23 22 22 21
18 10 4 10 9 1 1 1 4 6 5 6 5 2 3 4 1 3 3 2 1 2 2 2 2 2 5 18 17 15 14 15 14 15 17 18 20 23 25 26 25 24 22 21
22 17 16 7 3 0 4 1 3 4 1 5 4 6 6 5 4 1 3 1 2 1 2 3 2 2 15 20 18 17 16 15 14 14 16 17 19 20 20 21 22 22 20 18
16 3 3 5 4 6 5 3 4 3 3 4 8 4 5 4 3 4 2 3 2 1 3 2 1 9 18 20 19 17 16 16 14 14 14 15 16 17 19 19 18 17 17 17
3 2 4 3 3 0 3 3 3 3 5 12 14 5 4 4 4 1 3 1 1 3 3 2 2 17 20 17 18 17 17 16 16 16 15 15 16 17 16 17 17 16 15 15
3 1 2 0 3 2 4 2 3 4 7 11 4 2 3 2 2 2 2 4 4 3 2 2 14 19 17 20 19 17 16 16 15 14 15 15 15 15 16 16 15 14 13 12
2 2 3 3 3 1 2 2 2 5 10 4 2 1 3 3 1 4 2 1 2 1 2 13 17 16 16 19 19 16 15 14 12 13 12 13 14 14 14 13 14 14 13 12
0 2 4 4 4 4 2 3 5 7 4 1 2 4 1 1 3 3 3 1 2 11 14 17 15 14 16 18 18 17 15 14 12 11 12 12 11 11 11 14 14 13 12 11
Wind_Direction
351 351 351 352 351 350 352 346 336 354 5 29 23 1 310 305 304 328 300 276 237 257 330 293 280 275 290 322 329 336 274 294 283 288 278 311 222 173 187 196 215 231 138 270
352 352 353 352 355 355 349 337 296 350 9 17 356 328 290 285 314 325 308 284 291 335 318 313 251 249 293 310 323 321 327 334 312 103 91 157 223 221 196 205 161 217 197 218
350 351 351 356 358 356 357 344 334 330 17 16 20 327 299 340 319 286 263 268 324 328 315 257 286 298 305 310 292 292 222 273 253 281 333 3 305 323 295 221 227 235 222 226
352 351 354 354 360 356 2 346 302 286 306 346 337 300 288 331 344 315 316 300 231 327 311 313 277 311 316 308 320 41 95 277 305 289 280 272 277 316 307 279 255 227 237 179
348 351 351 354 357 354 3 356 335 315 287 308 319 327 296 319 327 263 304 263 320 319 298 288 309 316 323 296 334 29 336 293 317 286 281 263 47 17 351 306 282 263 34 96
349 350 352 351 355 356 348 338 332 282 297 321 328 281 304 307 319 299 257 296 312 314 301 320 296 294 280 266 276 281 282 304 313 276 21 152 44 19 50 43 34 5 30 346
347 346 347 349 352 355 342 336 327 297 286 293 303 306 300 308 310 285 292 305 273 305 316 328 334 111 246 260 323 296 273 205 227 277 307 61 132 28 10 67 43 28 8 348
344 344 346 347 347 349 340 338 322 289 277 270 299 325 318 309 300 280 274 305 320 324 327 356 344 356 353 313 1 5 10 1 290 296 22 115 39 355 326 346 46 23 355 339
345 344 343 343 345 344 339 336 313 288 286 260 298 311 314 317 325 314 262 332 339 353 5 29 27 23 319 337 332 357 14 9 340 315 62 72 13 326 321 186 199 9 349 340
344 342 340 342 340 344 339 332 326 291 264 277 299 308 299 310 319 299 301 336 332 6 11 21 23 323 300 1 4 339 354 352 12 352 70 84 353 335 330 57 312 330 331 328
340 338 339 338 338 340 339 330 330 307 277 293 281 288 295 297 299 293 309 333 12 326 20 26 332 334 280 65 53 347 11 341 353 337 14 3 7 15 58 286 302 309 318 317
340 339 338 337 336 335 336 323 319 312 282 276 292 299 303 284 273 264 297 272 288 309 290 316 199 296 350 70 92 353 63 58 289 18 347 27 9 98 12 342 324 325 322 318
337 336 331 334 329 329 329 307 310 311 288 303 290 117 353 345 302 280 276 278 299 284 306 304 199 245 240 47 43 47 359 23 341 326 9 338 92 1 352 342 332 324 320 317
336 336 332 329 328 324 318 302 299 306 292 282 272 306 320 317 308 305 291 284 289 284 253 247 232 280 27 65 110 76 342 323 325 285 23 337 207 329 329 329 327 324 329 328
334 332 332 329 328 319 300 296 248 268 344 282 292 317 65 318 334 342 335 334 287 280 288 304 46 52 72 80 87 77 357 343 344 282 333 299 293 313 328 325 330 333 332 332
332 333 332 333 328 315 275 246 224 337 331 302 296 322 292 328 352 349 352 0 16 281 73 69 61 32 17 97 86 141 4 339 305 282 311 303 307 318 335 335 340 343 339 351
333 334 332 339 342 124 185 203 241 311 314 273 303 322 318 350 351 345 0 6 31 57 82 63 52 16 42 65 85 338 338 337 334 353 345 321 336 328 349 350 349 352 357 0
333 333 329 341 54 74 196 248 296 295 276 269 282 280 338 1 350 341 351 355 14 42 98 84 74 33 41 53 309 334 345 346 1 348 352 350 351 359 2 2 359 358 3 3
334 332 320 276 232 309 278 280 256 312 168 222 73 117 287 342 348 314 317 343 36 24 76 67 73 351 41 299 334 337 344 345 329 337 351 358 2 3 8 8 8 4 0 2
336 335 308 257 330 323 129 153 214 188 28 51 86 341 284 331 340 313 342 15 94 56 320 73 61 98 331 347 346 339 340 342 343 345 349 352 355 358 2 7 10 11 7 3
343 328 298 308 324 269 196 117 42 0 32 20 1 346 296 334 12 265 330 276 282 85 285 100 47 39 344 355 357 357 349 347 351 347 346 349 351 353 358 4 9 13 14 14
320 304 293 308 337 56 80 349 349 50 221 349 340 323 292 300 300 304 309 259 39 134 337 75 65 355 347 0 358 3 1 355 354 355 357 358 360 2 7 12 14 14 17 20
316 300 292 327 355 39 75 329 324 357 1 14 341 323 309 309 296 292 1 8 22 277 39 71 105 336 354 359 358 357 4 5 3 2 359 2 5 6 9 13 20 18 24 30
296 311 317 59 344 213 175 187 197 302 304 332 332 300 1 329 347 330 14 2 354 59 48 34 356 341 349 359 0 356 357 1 3 5 6 6 8 10 11 14 16 18 27 32
265 316 269 174 135 115 154 172 312 310 310 331 313 306 338 332 1 20 341 20 60 40 42 339 333 339 354 356 354 355 352 353 358 0 4 6 7 11 13 14 14 19 26 36
247 124 105 123 129 118 179 283 347 336 331 354 42 93 46 28 38 48 17 36 50 2 319 322 331 340 348 349 350 349 349 348 350 359 2 5 8 10 11 12 19 20 23 27
174 80 96 100 88 104 96 13 353 344 352 49 91 57 234 247 46 53 17 54 276 331 332 335 341 342 347 342 344 347 345 345 346 348 357 2 2 2 7 17 19 18 20 23